TimeEST,TemperatureF,Dew PointF,Humidity,Sea Level PressureIn,VisibilityMPH,Wind Direction,Wind SpeedMPH,Gust SpeedMPH,PrecipitationIn,Events,Conditions,WindDirDegrees,DateUTC
12:53 AM,62.1,44.1,52,30.16,10.0,NW,8.1,-,N/A,,Scattered Clouds,310,2013-03-04 05:53:00
1:53 AM,60.1,46.0,60,30.14,10.0,NNW,12.7,-,N/A,,Partly Cloudy,330,2013-03-04 06:53:00
2:53 AM,60.1,45.0,57,30.14,10.0,NNW,11.5,-,N/A,,Partly Cloudy,340,2013-03-04 07:53:00
3:53 AM,61.0,45.0,56,30.14,10.0,NNW,11.5,-,N/A,,Overcast,330,2013-03-04 08:53:00
4:53 AM,60.1,45.0,57,30.15,10.0,NNW,11.5,-,N/A,,Mostly Cloudy,330,2013-03-04 09:53:00
5:53 AM,60.1,45.0,57,30.16,10.0,NNW,11.5,-,N/A,,Scattered Clouds,330,2013-03-04 10:53:00
6:53 AM,61.0,46.9,60,30.17,10.0,North,12.7,-,N/A,,Mostly Cloudy,360,2013-03-04 11:53:00
7:53 AM,60.1,37.9,44,30.19,10.0,ENE,8.1,-,N/A,,Mostly Cloudy,60,2013-03-04 12:53:00
8:53 AM,59.0,50.0,72,30.22,10.0,ENE,12.7,-,N/A,,Mostly Cloudy,60,2013-03-04 13:53:00
9:53 AM,60.1,48.9,67,30.23,10.0,East,12.7,-,N/A,,Mostly Cloudy,80,2013-03-04 14:53:00
10:53 AM,62.1,48.9,62,30.23,10.0,ENE,9.2,-,N/A,,Scattered Clouds,70,2013-03-04 15:53:00
11:53 AM,62.1,45.0,53,30.22,10.0,NE,10.4,-,N/A,,Scattered Clouds,40,2013-03-04 16:53:00
12:53 PM,62.1,48.0,60,30.19,10.0,NE,9.2,-,N/A,,Scattered Clouds,40,2013-03-04 17:53:00
1:53 PM,63.0,48.9,60,30.17,10.0,NNE,8.1,-,N/A,,Scattered Clouds,30,2013-03-04 18:53:00
2:53 PM,64.0,48.9,58,30.15,10.0,NNE,9.2,-,N/A,,Scattered Clouds,20,2013-03-04 19:53:00
3:53 PM,64.0,50.0,60,30.15,10.0,NNE,9.2,-,N/A,,Partly Cloudy,30,2013-03-04 20:53:00
4:53 PM,63.0,48.0,58,30.15,10.0,North,6.9,-,N/A,,Partly Cloudy,350,2013-03-04 21:53:00
5:53 PM,62.1,46.9,58,30.15,10.0,North,5.8,-,N/A,,Partly Cloudy,10,2013-03-04 22:53:00
6:53 PM,59.0,48.0,67,30.16,10.0,ENE,3.5,-,N/A,,Partly Cloudy,60,2013-03-04 23:53:00
7:53 PM,59.0,48.0,67,30.18,10.0,Calm,Calm,-,N/A,,Clear,0,2013-03-05 00:53:00
8:53 PM,55.0,48.0,77,30.20,10.0,Calm,Calm,-,N/A,,Clear,0,2013-03-05 01:53:00
9:53 PM,57.0,46.0,67,30.20,10.0,NE,3.5,-,N/A,,Clear,50,2013-03-05 02:53:00
10:53 PM,57.0,46.0,67,30.19,10.0,NE,4.6,-,N/A,,Clear,40,2013-03-05 03:53:00
11:53 PM,57.0,43.0,59,30.17,10.0,NE,4.6,-,N/A,,Clear,40,2013-03-05 04:53:00